Location: Newark
(46.1292°N, 1.0086°W)
Time: 21:11:56
(UTC+00:00)

N. Korean satellite - Visible Passes

Search period start: 20 October 2019 00:00
Search period end: 30 October 2019 00:00
Orbit: 455 x 508 km, 97.2° (Epoch: 20 October)

Date Brightness Start Highest point End Pass type
(mag) Time Alt. Az. Time Alt. Az. Time Alt. Az.
20 Oct 10.4 04:51:15 10° ENE 04:52:15 11° E 04:53:15 10° ESE visible
21 Oct 10.0 18:09:49 10° SW 18:11:55 15° W 18:14:01 10° NW visible
22 Oct 8.7 05:32:01 10° NNE 05:35:20 33° E 05:38:41 10° SSE visible
22 Oct 8.8 17:43:23 10° SSW 17:46:25 29° W 17:49:32 10° NNW visible
23 Oct 9.9 05:07:23 10° NE 05:09:53 17° E 05:12:24 10° SE visible
25 Oct 7.5 05:49:15 10° NNE 05:52:52 55° E 05:56:29 10° S visible
25 Oct 9.7 18:01:28 10° SW 18:03:58 19° W 18:06:31 10° NW visible
26 Oct 9.1 05:24:17 10° NE 05:27:28 27° E 05:30:39 10° SSE visible
26 Oct 8.3 17:35:17 10° SSW 17:38:30 37° W 17:41:47 10° NNW visible
27 Oct 10.1 04:59:51 10° NE 05:01:58 15° E 05:04:05 10° SE visible
28 Oct 6.6 06:06:37 10° NNE 06:10:18 89° WNW 06:14:01 10° SSW visible
28 Oct 10.2 18:20:11 10° WSW 18:21:33 12° W 18:22:55 10° WNW visible
29 Oct 8.0 05:41:25 10° NNE 05:44:58 44° E 05:48:31 10° S visible
29 Oct 9.3 17:53:11 10° SSW 17:56:00 23° W 17:58:52 10° NW visible
